Henry Tift Myers AP, Tifton,, GA

6:20 AM EST on December 12, 2019 (GMT -0500)
Myers

Weather History for KTMA - October, 2019

Change the Weather History Date:

Tuesday, October 29, 2019

  Actual Average Record
Temperature  
Mean Temperature 72 °F -  
Max Temperature 73 °F 75 °F 84 °F (2016)
Min Temperature 70 °F 51 °F 41 °F (2017)
Cooling Degree Days 6    
Growing Degree Days 22 (Base 50)    
Moisture  
Dew Point 71 °F    
Average Humidity 96    
Maximum Humidity 99    
Minimum Humidity 86    
Precipitation  
Precipitation 0.00 in - - ()
Sea Level Pressure  
Sea Level Pressure 30.10 in    
Wind  
Wind Speed 1 mph ()    
Max Wind Speed 6 mph    
Max Gust Speed -    
Visibility 8.8 miles    
Events Rain , Thunderstorm    
Averages and records for this station are not official NWS values.
T = Trace of Precipitation, MM = Missing Value Source: Averaged Metar Reports

Daily Weather History Graph

Daily Weather History Graph

Search for Another Location

Airport or City:

Astronomy

Oct. 29, 2019 Rise Set
Actual Time 7:47 AM EDT 6:47 PM EDT
Civil Twilight 7:22 AM EDT 7:12 PM EDT
Nautical Twilight 6:53 AM EDT 7:41 PM EDT
Astronomical Twilight 6:25 AM EDT 8:09 PM EDT
Moon 9:16 AM EDT (10/29) 8:16 PM EDT (10/29)
Length of Visible Light 11h 50m
Length of Day
11h 00m
Waxing Crescent, 3% of the Moon is Illuminated
Oct 29
Waxing Crescent
Nov 4
First Quarter
Nov 12
Full
Nov 19
Last Quarter
Nov 26
New

Hourly Weather History & Observations

Time (EDT) Temp. Dew Point Humidity Pressure Visibility Wind Dir Wind Speed Gust Speed Precip Events Conditions
12:15 AM 72.9 °F 68.4 °F 86% 30.08 in 10.0 mi Calm Calm - N/A   Clear
12:35 AM 71.8 °F 68.7 °F 90% - 10.0 mi Calm Calm - N/A   Clear
12:55 AM 70.9 °F 68.5 °F 92% 30.07 in 10.0 mi Calm Calm - N/A   Clear
1:15 AM 71.6 °F 68.5 °F 90% 30.08 in 10.0 mi Calm Calm - N/A   Clear
1:35 AM 71.4 °F 68.9 °F 92% 30.08 in 10.0 mi Calm Calm - N/A   Scattered Clouds
1:55 AM 71.2 °F 68.9 °F 92% 30.07 in 10.0 mi Calm Calm - N/A   Mostly Cloudy
2:15 AM 71.1 °F 69.1 °F 93% 30.08 in 10.0 mi Calm Calm - N/A   Overcast
2:35 AM 71.8 °F 69.1 °F 91% 30.07 in 10.0 mi Calm Calm - N/A   Overcast
2:55 AM 72.0 °F 69.6 °F 92% 30.07 in 10.0 mi Calm Calm - N/A Rain Light Rain
3:15 AM 71.6 °F 69.8 °F 94% 30.07 in 10.0 mi Calm Calm - N/A   Overcast
3:35 AM 71.2 °F 69.8 °F 95% 30.07 in 10.0 mi Calm Calm - N/A   Mostly Cloudy
3:55 AM 71.1 °F 69.6 °F 95% 30.07 in 10.0 mi Calm Calm - N/A   Mostly Cloudy
4:15 AM 71.6 °F 70.0 °F 95% 30.07 in 10.0 mi Calm Calm - N/A   Overcast
4:35 AM 72.0 °F 70.2 °F 94% 30.07 in 10.0 mi Calm Calm - N/A Rain Light Rain
4:55 AM 70.9 °F 70.3 °F 98% 30.07 in 4.0 mi Calm Calm - N/A Rain Rain
5:15 AM 70.9 °F 70.5 °F 99% 30.07 in 7.0 mi Calm Calm - N/A Rain Light Rain
5:35 AM 70.9 °F 70.7 °F 99% 30.08 in 7.0 mi Calm Calm - N/A   Light Drizzle
5:55 AM 70.9 °F 70.7 °F 99% 30.08 in 10.0 mi Calm Calm - N/A   Mostly Cloudy
6:15 AM 70.9 °F 70.7 °F 99% 30.08 in 7.0 mi Calm Calm - N/A Rain Rain
6:35 AM 70.7 °F 70.2 °F 98% 30.08 in 10.0 mi Calm Calm - N/A   Light Drizzle
6:55 AM 70.7 °F 69.8 °F 97% 30.08 in 10.0 mi Calm Calm - N/A   Scattered Clouds
7:15 AM 70.2 °F 69.8 °F 99% 30.08 in 10.0 mi Calm Calm - N/A   Scattered Clouds
7:35 AM 70.5 °F 69.8 °F 98% 30.09 in 10.0 mi Calm Calm - N/A   Mostly Cloudy
7:55 AM 70.5 °F 69.8 °F 98% 30.09 in 10.0 mi Calm Calm - N/A   Overcast
8:15 AM 70.7 °F 69.6 °F 96% 30.09 in 10.0 mi Calm Calm - N/A Rain Rain
8:35 AM 70.7 °F 69.8 °F 97% 30.10 in 10.0 mi Calm Calm - N/A   Overcast
8:55 AM 71.1 °F 69.6 °F 95% 30.11 in 10.0 mi Calm Calm - N/A   Overcast
9:15 AM 71.1 °F 69.4 °F 95% 30.11 in 10.0 mi Calm Calm - N/A   Overcast
9:35 AM 71.1 °F 69.6 °F 95% 30.11 in 10.0 mi Calm Calm - N/A   Overcast
9:55 AM 71.8 °F 70.2 °F 95% 30.11 in 10.0 mi NNE 3.5 mph - N/A Thunderstorm Mostly Cloudy
10:15 AM 72.0 °F 70.3 °F 95% 30.11 in 10.0 mi Calm Calm - N/A   Mostly Cloudy
10:35 AM 72.1 °F 70.5 °F 95% 30.12 in 10.0 mi NE 3.5 mph - N/A   Overcast
10:55 AM 72.5 °F 71.1 °F 95% 30.13 in 10.0 mi Calm Calm - N/A Rain Light Rain
11:15 AM 72.7 °F 71.4 °F 96% 30.13 in 10.0 mi Calm Calm - N/A Rain Light Rain
11:35 AM 72.7 °F 71.8 °F 97% 30.14 in 7.0 mi Calm Calm - N/A Rain , Thunderstorm Light Thunderstorms and Rain
11:55 AM 72.5 °F 71.8 °F 98% 30.14 in 7.0 mi Calm Calm - N/A Rain , Thunderstorm Rain
12:15 PM 72.3 °F 71.8 °F 98% 30.14 in 1.5 mi East 3.5 mph - N/A   Overcast
12:35 PM 72.0 °F 71.6 °F 99% 30.14 in 2.5 mi NW 3.5 mph - N/A Rain , Thunderstorm Thunderstorms and Rain
12:55 PM 71.8 °F 71.6 °F 99% 30.14 in 4.0 mi WNW 3.5 mph - N/A Rain , Thunderstorm Heavy Thunderstorms and Rain
1:15 PM 71.6 °F 71.2 °F 99% 30.11 in 2.5 mi NNE 5.8 mph - N/A   Overcast
1:35 PM 71.6 °F 70.9 °F 98% 30.10 in 5.0 mi NE 3.5 mph - N/A Rain , Thunderstorm Rain
1:55 PM 71.6 °F 71.1 °F 98% 30.09 in 7.0 mi North 3.5 mph - N/A Rain , Thunderstorm Light Thunderstorms and Rain
2:15 PM 71.6 °F 70.9 °F 98% 30.10 in 10.0 mi Calm Calm - N/A Thunderstorm Overcast
2:35 PM 71.6 °F 70.9 °F 98% 30.10 in 7.0 mi Calm Calm - N/A Rain Rain
2:55 PM 71.6 °F 70.9 °F 98% 30.10 in 5.0 mi Calm Calm - N/A Rain Rain
3:15 PM 71.6 °F 71.1 °F 98% 30.09 in 3.0 mi NNE 3.5 mph - N/A Rain Rain
3:35 PM 71.6 °F 71.1 °F 98% 30.09 in 5.0 mi Calm Calm - N/A Rain Light Rain
3:55 PM 71.6 °F 71.2 °F 99% 30.10 in 10.0 mi ENE 3.5 mph - N/A Rain Light Rain
4:15 PM 72.0 °F 71.6 °F 99% 30.10 in 7.0 mi NNE 3.5 mph - N/A   Overcast
4:35 PM 72.5 °F 71.8 °F 98% 30.09 in 7.0 mi NNE 3.5 mph - N/A   Overcast
4:55 PM 72.7 °F 72.1 °F 98% 30.10 in 10.0 mi Calm Calm - N/A   Overcast
5:15 PM 72.9 °F 72.0 °F 97% 30.10 in 10.0 mi NNE 4.6 mph - N/A   Overcast
5:35 PM 73.0 °F 72.3 °F 98% 30.10 in 10.0 mi ENE 3.5 mph - N/A   Overcast
5:55 PM 73.2 °F 72.5 °F 98% 30.10 in 10.0 mi Calm Calm - N/A   Overcast
6:15 PM 73.4 °F 72.5 °F 97% 30.10 in 10.0 mi Calm Calm - N/A   Overcast
6:35 PM 73.4 °F 72.5 °F 97% 30.11 in 10.0 mi ENE 3.5 mph - N/A   Overcast
6:55 PM 73.4 °F 72.5 °F 97% 30.11 in 10.0 mi ENE 3.5 mph - N/A   Overcast
7:15 PM 73.0 °F 72.5 °F 98% 30.11 in 10.0 mi Calm Calm - N/A   Overcast
7:35 PM 73.0 °F 72.5 °F 98% 30.10 in 10.0 mi Calm Calm - N/A   Overcast
7:55 PM 72.9 °F 72.0 °F 97% 30.11 in 10.0 mi East 5.8 mph - N/A   Overcast
8:15 PM 72.5 °F 71.4 °F 96% 30.11 in 10.0 mi East 3.5 mph - N/A   Overcast
8:35 PM 72.1 °F 71.1 °F 96% 30.12 in 10.0 mi East 3.5 mph - N/A   Overcast
8:55 PM 72.1 °F 71.2 °F 97% 30.12 in 10.0 mi East 4.6 mph - N/A   Overcast
9:15 PM 72.1 °F 71.2 °F 97% 30.13 in 10.0 mi East 3.5 mph - N/A   Overcast
9:35 PM 72.1 °F 71.2 °F 97% 30.13 in 10.0 mi Calm Calm - N/A   Overcast
9:55 PM 72.0 °F 71.2 °F 98% 30.13 in 10.0 mi East 3.5 mph - N/A   Overcast
10:15 PM 71.8 °F 71.1 °F 98% 30.13 in 10.0 mi Calm Calm - N/A   Overcast
10:35 PM 71.6 °F 70.9 °F 98% 30.13 in 10.0 mi East 3.5 mph - N/A   Overcast
10:55 PM 71.1 °F 70.7 °F 99% 30.13 in 10.0 mi East 3.5 mph - N/A   Mostly Cloudy
11:15 PM 71.1 °F 70.3 °F 98% 30.13 in 10.0 mi East 3.5 mph - N/A   Overcast
11:35 PM 71.2 °F 70.3 °F 97% 30.13 in 10.0 mi East 4.6 mph - N/A   Overcast
11:55 PM 71.2 °F 70.5 °F 98% 30.12 in 10.0 mi ESE 5.8 mph - N/A   Overcast